When you browse on this site, cookies collect data to enhance your experience and personalize the content and advertising you see.
Visit our Privacy Policy to learn more. By continuing to use the site, you agree to this use of cookies and data.
  • în România
  • Lista ţărilor
  • Pe 7 zile
  • Temperatura apei
  • Hartă satelitară
  • Meteo pe hartă
  • Widget-uri
  • user-avatar
    Intrare

    Meteo pe oră la Río Gallegos

    Astăzi, 24 Martie, Duminică

    Timp Temperatura Precipitaţii Vânt Presiune Umiditate
    00:00 +12°C° 0.3 mm 4 m/s 762 mmHg 80%
    01:00 +12°C° 0.3 mm 4 m/s 762 mmHg 82%
    02:00 +12°C° 0.4 mm 3 m/s 762 mmHg 83%
    03:00 +12°C° 0.4 mm 3 m/s 762 mmHg 84%
    04:00 +13°C° 0.4 mm 2 m/s 762 mmHg 85%
    05:00 +12°C° 0.1 mm 3 m/s 762 mmHg 86%
    06:00 +12°C° 0.1 mm 3 m/s 763 mmHg 86%
    07:00 +12°C° 0.1 mm 3 m/s 763 mmHg 86%
    08:00 +13°C° 0 mm 3 m/s 763 mmHg 78%
    09:00 +13°C° 0 mm 4 m/s 763 mmHg 70%
    10:00 +14°C° 0 mm 4 m/s 763 mmHg 61%
    11:00 +15°C° 0 mm 4 m/s 763 mmHg 57%
    12:00 +15°C° 0 mm 5 m/s 763 mmHg 54%
    13:00 +16°C° 0 mm 5 m/s 763 mmHg 50%
    14:00 +16°C° 0.2 mm 5 m/s 763 mmHg 52%
    15:00 +15°C° 0.2 mm 5 m/s 763 mmHg 55%
    16:00 +15°C° 0.2 mm 5 m/s 762 mmHg 58%
    17:00 +14°C° 0 mm 5 m/s 763 mmHg 57%
    18:00 +13°C° 0 mm 6 m/s 763 mmHg 57%
    19:00 +11°C° 0 mm 6 m/s 763 mmHg 56%
    20:00 +11°C° 0 mm 6 m/s 763 mmHg 58%
    21:00 +10°C° 0 mm 6 m/s 763 mmHg 60%
    22:00 +10°C° 0 mm 7 m/s 763 mmHg 63%
    23:00 +9°C° 0 mm 7 m/s 764 mmHg 64%

    Mâine, 25 Martie, Luni

    Timp Temperatura Precipitaţii Vânt Presiune Umiditate
    00:00 +9°C° 0 mm 7 m/s 764 mmHg 66%
    01:00 +9°C° 0 mm 8 m/s 764 mmHg 68%
    02:00 +7°C° 0 mm 8 m/s 765 mmHg 67%
    03:00 +7°C° 0 mm 8 m/s 765 mmHg 67%
    04:00 +6°C° 0 mm 8 m/s 765 mmHg 67%
    05:00 +6°C° 0 mm 8 m/s 766 mmHg 68%
    06:00 +6°C° 0 mm 8 m/s 766 mmHg 68%
    07:00 +6°C° 0 mm 8 m/s 767 mmHg 69%
    08:00 +7°C° 0 mm 9 m/s 767 mmHg 64%
    09:00 +8°C° 0 mm 9 m/s 767 mmHg 58%
    10:00 +10°C° 0 mm 9 m/s 767 mmHg 53%
    11:00 +11°C° 0 mm 9 m/s 767 mmHg 50%
    12:00 +11°C° 0 mm 9 m/s 767 mmHg 48%
    13:00 +12°C° 0 mm 9 m/s 767 mmHg 46%
    14:00 +12°C° 0 mm 8 m/s 767 mmHg 46%
    15:00 +12°C° 0 mm 8 m/s 767 mmHg 47%
    16:00 +11°C° 0 mm 7 m/s 767 mmHg 47%
    17:00 +11°C° 0 mm 6 m/s 767 mmHg 50%
    18:00 +10°C° 0 mm 5 m/s 767 mmHg 53%
    19:00 +10°C° 0 mm 4 m/s 767 mmHg 56%
    20:00 +10°C° 0 mm 4 m/s 767 mmHg 57%
    21:00 +10°C° 0 mm 3 m/s 767 mmHg 59%
    22:00 +9°C° 0 mm 3 m/s 767 mmHg 61%
    23:00 +9°C° 0 mm 3 m/s 767 mmHg 63%

    Poimâine, 26 Martie, Marţi

    Timp Temperatura Precipitaţii Vânt Presiune Umiditate
    00:00 +9°C° 0 mm 3 m/s 766 mmHg 65%
    01:00 +9°C° 0 mm 3 m/s 766 mmHg 68%
    02:00 +9°C° 0 mm 3 m/s 765 mmHg 72%
    03:00 +8°C° 0 mm 3 m/s 765 mmHg 75%
    04:00 +8°C° 0 mm 3 m/s 764 mmHg 79%
    05:00 +9°C° 0 mm 3 m/s 764 mmHg 77%
    06:00 +9°C° 0 mm 3 m/s 763 mmHg 75%
    07:00 +9°C° 0 mm 3 m/s 763 mmHg 74%
    08:00 +11°C° 0 mm 4 m/s 763 mmHg 63%
    09:00 +13°C° 0 mm 5 m/s 762 mmHg 52%
    10:00 +14°C° 0 mm 6 m/s 762 mmHg 41%
    11:00 +16°C° 0 mm 6 m/s 761 mmHg 38%
    12:00 +17°C° 0 mm 6 m/s 761 mmHg 34%
    13:00 +19°C° 0 mm 6 m/s 760 mmHg 31%
    14:00 +19°C° 0 mm 5 m/s 759 mmHg 32%
    15:00 +19°C° 0 mm 4 m/s 758 mmHg 33%
    16:00 +19°C° 0 mm 4 m/s 758 mmHg 34%
    17:00 +18°C° 0 mm 3 m/s 757 mmHg 40%
    18:00 +16°C° 0 mm 2 m/s 757 mmHg 45%
    19:00 +15°C° 0 mm 2 m/s 757 mmHg 50%
    20:00 +15°C° 0 mm 2 m/s 756 mmHg 49%
    21:00 +14°C° 0 mm 3 m/s 756 mmHg 47%
    22:00 +14°C° 0 mm 3 m/s 756 mmHg 45%
    23:00 +13°C° 0 mm 4 m/s 756 mmHg 46%

    27 Martie, Miercuri

    Timp Temperatura Precipitaţii Vânt Presiune Umiditate
    00:00 +13°C° 0 mm 5 m/s 756 mmHg 46%
    01:00 +11°C° 0 mm 6 m/s 755 mmHg 47%
    02:00 +11°C° 0 mm 6 m/s 756 mmHg 47%
    03:00 +11°C° 0 mm 6 m/s 756 mmHg 48%
    04:00 +11°C° 0 mm 6 m/s 756 mmHg 49%
    05:00 +11°C° 0 mm 6 m/s 756 mmHg 55%
    06:00 +11°C° 0 mm 6 m/s 757 mmHg 61%
    07:00 +11°C° 0 mm 6 m/s 757 mmHg 67%
    08:00 +12°C° 0 mm 5 m/s 757 mmHg 66%
    09:00 +13°C° 0 mm 5 m/s 758 mmHg 65%
    10:00 +14°C° 0 mm 4 m/s 758 mmHg 63%
    11:00 +14°C° 0 mm 5 m/s 757 mmHg 59%
    12:00 +15°C° 0 mm 5 m/s 757 mmHg 55%
    13:00 +16°C° 0 mm 6 m/s 756 mmHg 51%
    14:00 +16°C° 0 mm 5 m/s 756 mmHg 49%
    15:00 +15°C° 0 mm 5 m/s 756 mmHg 46%
    16:00 +15°C° 0 mm 4 m/s 755 mmHg 44%
    17:00 +15°C° 0 mm 4 m/s 756 mmHg 50%
    18:00 +14°C° 0 mm 4 m/s 756 mmHg 56%
    19:00 +14°C° 0 mm 4 m/s 756 mmHg 61%
    20:00 +13°C° 0 mm 5 m/s 757 mmHg 65%
    21:00 +11°C° 0 mm 6 m/s 757 mmHg 68%
    22:00 +10°C° 0 mm 7 m/s 758 mmHg 71%
    23:00 +9°C° 0 mm 6 m/s 758 mmHg 72%

    28 Martie, Joi

    Timp Temperatura Precipitaţii Vânt Presiune Umiditate
    00:00 +8°C° 0 mm 5 m/s 758 mmHg 73%
    01:00 +8°C° 0 mm 4 m/s 759 mmHg 74%
    02:00 +7°C° 0 mm 4 m/s 759 mmHg 76%
    03:00 +8°C° 0 mm 3 m/s 759 mmHg 78%
    04:00 +7°C° 0 mm 2 m/s 759 mmHg 79%
    05:00 +8°C° 0 mm 2 m/s 759 mmHg 77%
    06:00 +9°C° 0 mm 1 m/s 759 mmHg 74%
    07:00 +9°C° 0 mm 1 m/s 760 mmHg 72%
    08:00 +9°C° 0 mm 2 m/s 760 mmHg 69%
    09:00 +8°C° 0 mm 4 m/s 760 mmHg 67%
    10:00 +9°C° 0 mm 5 m/s 759 mmHg 65%
    11:00 +9°C° 0.1 mm 7 m/s 759 mmHg 66%
    12:00 +9°C° 0.1 mm 8 m/s 758 mmHg 67%
    13:00 +8°C° 0.1 mm 9 m/s 757 mmHg 68%
    14:00 +8°C° 0.1 mm 9 m/s 756 mmHg 67%
    15:00 +9°C° 0.1 mm 10 m/s 754 mmHg 66%
    16:00 +9°C° 0.1 mm 11 m/s 753 mmHg 64%
    17:00 +9°C° 0.1 mm 11 m/s 752 mmHg 67%
    18:00 +9°C° 0.1 mm 11 m/s 750 mmHg 69%
    19:00 +9°C° 0.1 mm 12 m/s 749 mmHg 71%
    20:00 +11°C° 0.1 mm 11 m/s 747 mmHg 71%
    21:00 +12°C° 0.1 mm 10 m/s 745 mmHg 71%
    22:00 +13°C° 0.1 mm 9 m/s 743 mmHg 71%
    23:00 +13°C° 0.3 mm 9 m/s 742 mmHg 70%

    29 Martie, Vineri

    Timp Temperatura Precipitaţii Vânt Presiune Umiditate
    00:00 +14°C° 0.3 mm 10 m/s 740 mmHg 68%
    01:00 +14°C° 0.3 mm 10 m/s 738 mmHg 67%
    02:00 +16°C° 0 mm 10 m/s 737 mmHg 64%
    03:00 +16°C° 0 mm 11 m/s 735 mmHg 61%
    04:00 +17°C° 0 mm 11 m/s 734 mmHg 59%
    05:00 +14°C° 0.1 mm 13 m/s 734 mmHg 57%
    06:00 +13°C° 0.1 mm 14 m/s 735 mmHg 56%
    07:00 +11°C° 0.1 mm 15 m/s 735 mmHg 54%
    08:00 +10°C° 0 mm 20 m/s 736 mmHg 50%
    09:00 +9°C° 0 mm 24 m/s 736 mmHg 46%
    10:00 +9°C° 0 mm 28 m/s 737 mmHg 42%
    11:00 +8°C° 0 mm 27 m/s 738 mmHg 42%
    12:00 +8°C° 0 mm 26 m/s 740 mmHg 41%
    13:00 +7°C° 0 mm 25 m/s 741 mmHg 41%
    14:00 +7°C° 0 mm 23 m/s 743 mmHg 41%
    15:00 +6°C° 0 mm 21 m/s 744 mmHg 41%
    16:00 +4°C° 0 mm 20 m/s 745 mmHg 41%
    17:00 +5°C° 0 mm 18 m/s 747 mmHg 44%
    18:00 +3°C° 0 mm 17 m/s 748 mmHg 47%
    19:00 +2°C° 0 mm 15 m/s 749 mmHg 50%
    20:00 +2°C° 0 mm 15 m/s 750 mmHg 52%
    21:00 +3°C° 0 mm 14 m/s 750 mmHg 54%
    22:00 +3°C° 0 mm 14 m/s 750 mmHg 56%
    23:00 +3°C° 0 mm 13 m/s 750 mmHg 56%
    Arată mai mult